Page 
 of 99
Records 1 to 50 of 4914
  
ID
Release
Released
Files
Size
DAT
4990 FIFA.19.PS3-DUPLEX 2018-09-29 96 8.69 GiB PS3 Scene 2018
4989 FIFA_19_JPN_PS3-HR 2018-09-28 57 5.02 GiB PS3 Scene 2018
4987 FIFA_18_JPN_PS3-HR 2018-05-10 57 5.03 GiB PS3 Scene 2018
4986 Cars_3_Driven_to_Win_DiRFiX_EUR_PS3-Googlecus 2018-02-08 1 2.12 KiB PS3 Scene 2018
4985 Cars_3_Driven_to_Win_EUR_PS3-Googelcus 2018-02-08 92 4.17 GiB PS3 Scene 2018
4984 Adventure_Time_Finn_and_Jake_Investigation_EUR_READNFO_PS3-Googlecus 2018-02-07 28 1.21 GiB PS3 Scene 2018
4983 Test_Drive_Unlimited_2_EBOOT_3.41_PS3-iND 2017-12-04 2 6.71 MiB PS3 Scene 2017
4982 Need.for.Speed.Shift.CHT.PS3-iND 2017-12-04 41 3.54 GiB PS3 Scene 2017
4981 Turning_Point_Fall_of_Liberty_EUR_MULTi3_READNFO_PS3-Googlecus 2017-11-12 57 5.02 GiB PS3 Scene 2017
4976 Just.Dance.2018.PS3-DUPLEX 2017-10-29 68 12.1 GiB PS3 Scene 2017
4975 The_Godfather_II_EUR_MULTi3_PS3-Googlecus 2017-10-25 83 7.54 GiB PS3 Scene 2017
4974 Guitar_Hero_World_Tour_EUR_MULTi5_PS3-Googlecus 2017-10-18 67 5.99 GiB PS3 Scene 2017
4973 F.E.A.R._EUR_PS3-Googlecus 2017-10-08 72 3.22 GiB PS3 Scene 2017
4972 FIFA.18.PS3-DUPLEX 2017-09-27 97 8.77 GiB PS3 Scene 2017
4971 NBA_2K18_USA_PS3-HR 2017-09-16 91 8.28 GiB PS3 Scene 2017
4970 NBA.2K18.PS3-DUPLEX 2017-09-14 91 8.29 GiB PS3 Scene 2017
4969 Winning_Eleven_2018_JPN_PS3-HR 2017-09-14 64 5.73 GiB PS3 Scene 2017
4968 Pro.Evolution.Soccer.2018.PS3-DUPLEX 2017-09-13 85 7.67 GiB PS3 Scene 2017
4967 Call_of_Duty_Modern_Warfare_3_EUR_iTALiAN_PS3-Googlecus 2017-08-10 89 8.08 GiB PS3 Scene 2017
4966 Call_of_Duty_Modern_Warfare_2_EUR_iTALiAN_PS3-Googlecus 2017-07-19 79 7.16 GiB PS3 Scene 2017
4688 Call_of_Duty_4_Modern_Warfare_EUR_iTALiAN_PS3-Googlecus 2017-07-12 59 5.25 GiB PS3 Scene 2017
4687 Cars.3.Driven.to.Win.PS3-DUPLEX 2017-06-17 52 4.65 GiB PS3 Scene 2017
4686 Kung_Fu_Rider_EUR_MULTi13_PS3-Googlecus 2017-06-10 18 737.88 MiB PS3 Scene 2017
4685 Persona.5.PS3-DUPLEX 2017-05-18 87 19.78 GiB PS3 Scene 2017
4684 Shaun_White_Skateboarding_EUR_PS3-Googlecus 2017-04-30 98 4.43 GiB PS3 Scene 2017
4683 Prince_of_Persia_The_Forgotten_Sands_EUR_MULTi6_PS3-Googlecus 2017-03-28 89 4.04 GiB PS3 Scene 2017
4682 Need_For_Speed_Prostreet_EUR_READNFO_PS3-Googlecus 2017-03-28 44 3.9 GiB PS3 Scene 2017
4681 Watch.Dogs.NORDIC.COVER.PS3-DARKSiDERS 2017-03-09 5 13.37 MiB PS3 Scene 2017
4680 The.Wolf.Among.Us.NORDIC.COVER.PS3-DARKSiDERS 2017-03-09 5 13.12 MiB PS3 Scene 2017
4679 The.Elder.Scrolls.V.Skyrim.NORDIC.COVER.PS3-DARKSiDERS 2017-03-09 7 21.22 MiB PS3 Scene 2017
4678 Red.Dead.Redemption.COVER.PS3-DARKSiDER 2017-03-09 5 12.7 MiB PS3 Scene 2017
4677 Max.Payne.3.COVER.PS3-DARKSiDERS 2017-03-09 5 13.42 MiB PS3 Scene 2017
4676 L.A.Noire.COVER.PS3-DARKSiDERS 2017-03-09 5 12.73 MiB PS3 Scene 2017
4675 Killzone.3.NORDIC.COVER.PS3-DARKSiDERS 2017-03-09 7 22.47 MiB PS3 Scene 2017
4674 Grand.Theft.Auto.Liberty.City.Stories.COVER.PS3-DARKSiDERS 2017-03-09 5 12.62 MiB PS3 Scene 2017
4673 Far.Cry.4.NORDIC.COVER.PS3-DARKSiDERS 2017-03-09 6 14.58 MiB PS3 Scene 2017
4672 Beyond.Two.Souls.NORDiC.COVER.PS3-DARKSiDERS 2017-03-09 7 21.07 MiB PS3 Scene 2017
4671 Winning_Post_8_2017_JPN_PS3-HR 2017-03-07 77 6.9 GiB PS3 Scene 2017
4670 Sangokushi_13_with_Power_Up_Kit_JPN_PS3-HR 2017-03-01 76 6.82 GiB PS3 Scene 2017
4669 Super.Mega.Baseball.PSN.PS3-DUPLEX 2017-02-25 7 235.69 MiB PS3 Scene 2017
4668 Star.Wars.Rogue.One.Pinball.PSN.PS3-DUPLEX 2017-02-25 22 938.92 MiB PS3 Scene 2017
4667 Sengoku_Musou_Sanada_Maru_JPN_PS3-HR 2017-01-12 80 10.65 GiB PS3 Scene 2017
4666 Adventure_Time_Nameless_Oukoku_no_3-nin_no_Princess_JPN_PS3-HR 2017-01-12 9 331.32 MiB PS3 Scene 2017
4665 Grand_Theft_Auto_San_Andreas_EUR_PS3-ANTiDOTE 2016-12-03 39 1.7 GiB PS3 Scene 2016
4664 X.Factor.EUR.PS3-ATAX 2016-11-24 67 2.99 GiB PS3 Scene 2016
4663 Pro_Evolution_Soccer_2017_USA_PS3-CLANDESTiNE 2016-11-24 76 6.82 GiB PS3 Scene 2016
4662 Leisure.Suit.Larry.Box.Office.Bust.EUR.PS3-ATAX 2016-11-24 42 1.82 GiB PS3 Scene 2016
4661 Guitar.Hero.Van.Halen.EUR.PS3-ATAX 2016-11-17 63 5.67 GiB PS3 Scene 2016
4660 Where.the.Wild.Things.Are.EUR.PS3-ATAX 2016-11-15 74 6.68 GiB PS3 Scene 2016
4659 Singstar_Vol_3_EUR_iTALiAN_READNFO_PS3-Googlecus 2016-11-14 72 9.71 GiB PS3 Scene 2016
2017-2018 The release details presented herein are solely for informational and historical purposes. All registered trademarks mentioned herein belong to their respective owners. The Scene Dats is solely an informational web site. There are absolutely NO downloads of copyright-protected works, hyperlinks to downloads, torrent files, magnet links, nzb files or similar content on any part of this web site. What we offer is information about the existence of a release, its size, and the corresponding NFO/SFV file. We do NOT help or encourage users to download or otherwise obtain any of the listed releases. v20181115.1212